Regional Weather Roundup
Issued by NWS Kansas City/Pleasant Hill, MO

Home | Current Version | Previous Version | Graphics & Text | Print | Product List | Glossary Off
Versions: 1 2 3 4 5 6 7 8 9 10 11 12 13 14 15 16 17 18 19 20 21 22 23 24 25 26 27 28 29 30 31 32 33 34 35 36 37 38 39 40 41 42 43 44 45 46 47 48 49 50

000
ASUS43 KEAX 290611
RWREAX

WEATHER ROUNDUP FOR EASTERN KANSAS AND NORTHWEST MISSOURI
NATIONAL WEATHER SERVICE KANSAS CITY/PLEASANT HILL MO
1200 AM CST SAT NOV 29 2014

KSZ040-057-103>105-MOZ028-029-037-043-290700-
...KANSAS CITY METROPOLITAN AREA...

CITY           SKY/WX    TMP DP  RH WIND       PRES   REMARKS
K.C. INTL      CLOUDY    53  39  59 SW16      29.71F
6HR MIN TEMP:  52; 6HR MAX TEMP:  54;

K.C. DOWNTOWN  CLOUDY    55  39  54 SW16      29.71F
6HR MIN TEMP:  54; 6HR MAX TEMP:  56;

LEES SUMMIT    CLOUDY    55  41  59 SW18G26   29.73F
6HR MIN TEMP:  52; 6HR MAX TEMP:  55;

OLATHE - IXD   CLOUDY    52  40  63 S13       29.74F
6HR MIN TEMP:  49; 6HR MAX TEMP:  53;

OLATHE - OJC   CLOUDY    51  40  65 S9        29.74F
6HR MIN TEMP:  51; 6HR MAX TEMP:  54;

LAWRENCE       CLOUDY    52  38  58 S9        29.73F

$$

MOZ001>008-011>017-020>025-030>033-038>040-044>046-053-054-290700-
...NORTHERN AND CENTRAL MISSOURI...

CITY           SKY/WX    TMP DP  RH WIND       PRES   REMARKS
ST. JOSEPH     MOCLDY    51  38  60 SW14      29.67F
6HR MIN TEMP:  42; 6HR MAX TEMP:  52;

MOSBY          CLOUDY    54  37  54 S3        29.72F
WARRENSBURG    CLOUDY    50  39  66 S14       29.76S
WHITEMAN AFB   CLOUDY    53  41  65 SW21G26   29.74F
6HR MIN TEMP:  49; 6HR MAX TEMP:  54;

CLINTON        CLOUDY    54  43  66 S12       29.80F
SEDALIA        CLOUDY    54  41  61 SW20      29.76F
6HR MIN TEMP:  50; 6HR MAX TEMP:  54;

WARSAW         NOT AVBL
MARSHALL       MOCLDY    54  43  66 SW16G22   29.75F
CHILLICOTHE      N/A     45  36  70 S6        29.71F
6HR MIN TEMP:  42; 6HR MAX TEMP:  50;

KIRKSVILLE     PTCLDY    44  36  73 S12       29.73F
6HR MIN TEMP:  35; 6HR MAX TEMP:  45;


$$

MOZ041-047>049-056>058-063>065-088>090-097-290700-
...EASTERN AND SOUTHERN MISSOURI...

CITY           SKY/WX    TMP DP  RH WIND       PRES   REMARKS
ST. LOUIS INTL MOCLDY    44  34  67 S8        29.87F
6HR MIN TEMP:  44; 6HR MAX TEMP:  48;

SPIRIT OF STL  MOCLDY    42  33  70 S5        29.86F
COLUMBIA       MOCLDY    47  36  65 S12       29.80F
JEFFERSON CITY MOCLDY    48  35  60 SE6       29.82F
MEXICO         PTCLDY    48  39  71 S15       29.78F
ROLLA          MOCLDY    46  35  65 S16       29.83F
LEBANON        PTCLDY    46  37  71 S9        29.85F
OSAGE BEACH    MOCLDY    46  34  61 S7        29.83F
SPRINGFIELD    CLOUDY    47  37  68 S10       29.85F
BRANSON        MOCLDY    50  43  76 S6        29.89F
JOPLIN         CLOUDY    56  46  69 S16       29.82F
WEST PLAINS    CLEAR     43  34  70 S7        29.92F

$$

IAZ060-094-KSZ022-034>040-054-083-096-NEZ052-066-093-290700-
...KANSAS...SOUTHEAST NEBRASKA AND IOWA...

CITY           SKY/WX    TMP DP  RH WIND       PRES   REMARKS
TOPEKA         CLOUDY    52  38  58 S6        29.71F
6HR MIN TEMP:  52; 6HR MAX TEMP:  57;

MANHATTAN      CLOUDY    49  38  65 S5        29.70F
EMPORIA        CLOUDY    47  39  74 S12       29.74F
CHANUTE        CLOUDY    53  46  77 S14       29.79F
WICHITA        MOCLDY    49  40  71 SE9       29.73F
OMAHA          PTCLDY    37  31  78 SE9       29.61F WCI  30
LINCOLN        MOCLDY    45  32  60 S6        29.63S
FALLS CITY     MOCLDY    52  37  56 SW8       29.65R
LAMONI         CLEAR     40  33  76 S12       29.66F WCI  33
DES MOINES     PTCLDY    36  30  79 SE8       29.63F WCI  30

$$




USA.gov is the U.S. government's official web portal to all federal, state and local government web resources and services.